Monterey, CA

4:14 PM PST on January 18, 2018 (GMT -0800)
Monterey Peninsula

Weather History for KMRY - November, 2014

Change the Weather History Date:

Thursday, November 6, 2014

  Actual Average Record
Temperature  
Mean Temperature 59 °F 56 °F  
Max Temperature 67 °F 65 °F 84 °F (2012)
Min Temperature 50 °F 47 °F 41 °F (2002)
Degree Days  
Heating Degree Days 6    
Month to date heating degree days 37  
Since 1 July heating degree days 262  
Cooling Degree Days 0    
Month to date cooling degree days 0  
Year to date cooling degree days 142  
Growing Degree Days 8 (Base 50)    
Moisture  
Dew Point 49 °F    
Average Humidity 69    
Maximum Humidity 86    
Minimum Humidity 52    
Precipitation  
Precipitation 0.00 in - 0.04 in (2011)
Month to date precipitation 0.73  
Year to date precipitation 10.04  
Since 1 July precipitation 2.65  
Sea Level Pressure  
Sea Level Pressure 30.22 in    
Wind  
Wind Speed 3 mph (SSW)    
Max Wind Speed 10 mph    
Max Gust Speed 28 mph    
Visibility 9 miles    
Events      
T = Trace of Precipitation, MM = Missing Value Source: NWS Daily Summary

Daily Weather History Graph

Daily Weather History Graph

Search for Another Location

Airport or City:

Trip Planner

Search our weather history database for the weather conditions in past years. The results will help you decide how hot, cold, wet, or windy it might be!

Date:

Astronomy

Nov. 06, 2014 Rise Set
Actual Time 6:35 AM PST 5:05 PM PST
Civil Twilight 6:08 AM PST 5:32 PM PST
Nautical Twilight 5:38 AM PST 6:03 PM PST
Astronomical Twilight 5:07 AM PST 6:33 PM PST
Moon 5:16 PM PST (11/6) 6:14 AM PST (11/6)
Length of Visible Light 11h 23m
Length of Day
10h 29m
Full, 100% of the Moon is Illuminated
Nov 6
Full
Nov 6
Full
Nov 14
Last Quarter
Nov 22
New
Nov 29
First Quarter

Hourly Weather History & Observations

Time (PST) Temp. Dew Point Humidity Pressure Visibility Wind Dir Wind Speed Gust Speed Precip Events Conditions
12:54 AM 55.0 °F 42.1 °F 62% 30.17 in 10.0 mi East 3.5 mph - N/A   Clear
1:54 AM 54.0 °F 42.1 °F 64% 30.18 in 10.0 mi East 4.6 mph - N/A   Clear
2:54 AM 54.0 °F 42.1 °F 64% 30.17 in 10.0 mi East 5.8 mph - N/A   Clear
3:54 AM 53.1 °F 42.1 °F 66% 30.19 in 10.0 mi Calm Calm - N/A   Clear
4:54 AM 51.1 °F 42.1 °F 71% 30.20 in 10.0 mi East 4.6 mph - N/A   Clear
5:54 AM 51.1 °F 44.1 °F 77% 30.19 in 10.0 mi East 5.8 mph - N/A   Clear
6:54 AM 52.0 °F 44.1 °F 74% 30.21 in 10.0 mi SW 4.6 mph - N/A   Clear
7:54 AM 57.0 °F 45.0 °F 64% 30.23 in 10.0 mi Calm Calm - N/A   Clear
8:54 AM 61.0 °F 48.0 °F 62% 30.24 in 9.0 mi Calm Calm - N/A   Clear
9:54 AM 60.1 °F 48.0 °F 64% 30.26 in 8.0 mi Calm Calm - N/A   Clear
10:54 AM 64.9 °F 46.9 °F 52% 30.25 in 10.0 mi Calm Calm - N/A   Clear
11:54 AM 63.0 °F 54.0 °F 72% 30.24 in 9.0 mi NW 6.9 mph - N/A   Clear
12:54 PM 63.0 °F 55.0 °F 75% 30.23 in 10.0 mi WNW 5.8 mph - N/A   Clear
1:54 PM 64.0 °F 55.0 °F 73% 30.22 in 9.0 mi WNW 5.8 mph - N/A   Clear
2:54 PM 64.9 °F 53.1 °F 65% 30.22 in 10.0 mi WNW 4.6 mph - N/A   Clear
3:54 PM 64.0 °F 55.0 °F 73% 30.23 in 10.0 mi West 6.9 mph - N/A   Clear
4:54 PM 62.1 °F 55.9 °F 80% 30.23 in 10.0 mi WSW 6.9 mph - N/A   Clear
5:54 PM 62.1 °F 54.0 °F 75% 30.23 in 10.0 mi South 5.8 mph - N/A   Clear
6:54 PM 60.1 °F 53.1 °F 78% 30.22 in 10.0 mi Calm Calm - N/A   Clear
7:54 PM 55.9 °F 51.1 °F 84% 30.21 in 10.0 mi East 3.5 mph - N/A   Clear
8:54 PM 55.0 °F 50.0 °F 83% 30.23 in 10.0 mi Calm Calm - N/A   Clear
9:54 PM 54.0 °F 48.9 °F 83% 30.24 in 10.0 mi Calm Calm - N/A   Clear
10:54 PM 53.1 °F 48.0 °F 83% 30.25 in 10.0 mi Calm Calm - N/A   Clear
11:26 PM 53.6 °F 46.4 °F 77% 30.21 in 10.0 mi Calm Calm - N/A   Scattered Clouds
11:35 PM 57.2 °F 51.8 °F 82% 30.21 in 2.5 mi Calm Calm - N/A   Haze
11:38 PM 57.2 °F 53.6 °F 88% 30.21 in 0.8 mi Calm Calm - N/A   Mist
11:54 PM 55.9 °F 54.0 °F 93% 30.25 in 1.2 mi Calm Calm - N/A   Overcast